Weather in Hlucin

Czech Republic     49°53′47″N   18°11′27″E
temp.,
°C
wind,
m/s
gust,
m/s
humid.,
%
clouds,
%
prec.,
mm/h
press.,
hPa
HPBL,
m
14 august, sun
sun1423:00+17nne349588 0.0 1014106
02:00+16nne239883 0.0 101386
05:00+17n2498100 0.1 1012172
08:00+17n2497100 0.6 1012196
11:00+21nne237783 0.2 1011797
14:00+23ene3366100 1.1 10101113
17:00+24ene236499 1.0 1009984
20:00+21ene11785 1.0 100811
15 august, mon
mon1523:00+18e118866 0.0 100811
02:00+17ssw019099 0.0 100811
05:00+17ssw119242 0.0 100711
08:00+20s12756 0.0 1008179
11:00+26s23485 0.0 1007771
14:00+29sse243778 0.0 10062554
17:00+28ssw134259 0.2 10051620
20:00+23ne2361100 0.2 100658
16 august, tue
tue1623:00+20ese2273100 0.2 100725
02:00+19sse117822 0.2 100811
05:00+18sw227720 0.0 100819
08:00+22w12656 0.0 1009186
11:00+27n33491 0.0 1010966
14:00+30nnw34395 0.0 10091816
17:00+30n44370 0.0 10091950
20:00+22wnw3464100 0.0 101075
17 august, wed
wed1723:00+21nw126222 0.0 101115
02:00+19sw11640 0.0 101211
05:00+19wsw11670 0.0 101111
08:00+22nw11570 0.0 1012164
11:00+28nnw22440 0.0 1012819
14:00+31nne33360 0.0 10112069
17:00+31n23345 0.0 10112371
20:00+27nne224870 0.0 101134
18 august, thu
thu1823:00+23e235940 0.0 101134
02:00+21e1165100 0.0 101128
05:00+20ene117214 0.0 101120
08:00+23e2364100 0.0 1011232
11:00+29e5545100 0.0 1011926
14:00+31e433725 0.0 10091588
17:00+31e433674 0.0 10081761
20:00+24e4105992 0.3 1008205